COSMOS 532

Satellite information

Favourite Embed

Satellite Type and Status

PAYLOADIN ORBIT

Key statistics

Satellite COSMOS 532 at a glance.

Uptime

19242

Days in orbit

Revolutions

≈ 12.7

Per day

Orbit

LEO

Low Earth Orbit

Inclination

74.0

Latest

Satellite identification and parameters

Extended collection of information and parameters for COSMOS 532.

Object identification

Identified? True

Debris? False

Object name: COSMOS 532

International designator: 1972-087E

Object number (NORAD): 6267

Object ID (CCSDS): 6267

Country: COMMONWEALTH OF INDEPENDENT STATES (CIS)

Current information (Y/N): Y

RCS size: MEDIUM

Orbital parameters

Period: 113.41 minutes

Inclination: 74.0323 deg

SMA: 7761.163 km

Apoapsis: 1467.225 km

Periapsis: 1298.831 km

RAAN: 211.4617 deg

Eccentricy: 0.0108485

Argument of periapsis: 325.3187 deg

Mean anomaly: 208.8786 deg

Mean motion: 12.69733538 rev/day

Mean motion (dot): 0.00000007 rev/day2

B* drag term: 0.00012001 1/REarth

Two-line elements (TLE)

Creation date: July 8, 2025, 2:27 a.m.

Reference frame: TEME

Reference center: EARTH

Epoch: July 7, 2025, 7:27 p.m. UTC

TLE line 0: 0 COSMOS 532

TLE line 1: 1 06267U 72087E 25188.81105666 .00000007 00000-0 12001-3 0 9996

TLE line 2: 2 06267 74.0323 211.4617 0108485 325.3187 208.8786 12.69733538441587

Live tracking on map

Real-time ground track for satellite COSMOS 532.

In-orbit conjunctions

A list of the most updated potential collisions computed for object COSMOS 532.

Target Orbit TCA Probability of collision Miss distance Type
DELTA 1 DEB SSO 2024-05-27 06:20:20 0.0003055186 382.0 (m) DEBRIS

Associated space launch

Military communications satellites

COSMOS 532 was lifted into orbit during the mission ‘Kosmos-3M | Strela-1M 33-40’, on board a Kosmos-3M space rocket.

The launch took place on Nov. 1, 1972, 2:08 a.m. from 132/2.

For more information about the launch, click the button.

Launch to space Kosmos-3M | Strela-1M 33-40
Kosmos-3M | Strela-1M 33-40

Agency: N/A

Status: Launch Successful

Launch date: Nov. 1, 1972, 2:08 a.m. UTC

Rocket: Kosmos-3M

Launch pad: 132/2

Location: Plesetsk Cosmodrome, Russian Federation

...

Latest news about this satellite

There are no fresh news available about this satellite. Check back as we update our databases every day.


Newsletter sign-up

Weekly statistics, charts and insights to help you stay on top of the space industry.